Location: Bercimuel
(41.3983°N, 3.5711°W)
Time: 21:16:00
(UTC+00:00)

Cosmos 2360 Rocket - Pass Details

Date: 15 May 2026
Orbit: 831 x 845 km, 71.0° (Epoch: 7 June)

Event Time Altitude Azimuth Distance (km) Brightness Sun altitude
Rises 21:46:02 0° 338° (NNW) 3,413 6.7 -20.9°
Reaches altitude 10° 21:48:31 10° 341° (NNW) 2,474 5.7 -21.2°
Maximum altitude 21:54:10 68° 64° (ENE) 908 2.2 -21.8°
Enters shadow 21:55:46 46° 129° (SE) 1,114 2.4 -22.0°
